This is the latest recevied weather packets stored in our database for station/object K1JO. If no packets are shown the sender has not sent any weather packets the latest 10 day(s).
| Time | Temp. | Humidity | Pressure | Rain* | Wind** | Luminosity | Snow |
|---|---|---|---|---|---|---|---|
| 1777957670 | 3.89° C | 99% | 1003.6 hPa | 0 mm | - | 0 W/m² | - |
| 1777957368 | 3.89° C | 99% | 1003.6 hPa | 0 mm | - | 0 W/m² | - |
| 1777957063 | 3.89° C | 99% | 1003.9 hPa | 0 mm | - | 0 W/m² | - |
| 1777956761 | 3.89° C | 99% | 1003.7 hPa | 0 mm | - | 0 W/m² | - |
| 1777956458 | 3.89° C | 99% | 1003.6 hPa | 0 mm | - | 0 W/m² | - |
| 1777956154 | 3.89° C | 99% | 1003.8 hPa | 0 mm | - | 0 W/m² | - |
| 1777955851 | 3.89° C | 99% | 1003.7 hPa | 0 mm | - | 0 W/m² | - |
| 1777955547 | 4.44° C | 99% | 1003.8 hPa | 0 mm | - | 0 W/m² | - |
| 1777955243 | 3.89° C | 99% | 1003.8 hPa | 0 mm | - | 0 W/m² | - |
| 1777954941 | 4.44° C | 99% | 1003.6 hPa | 0 mm | - | 0 W/m² | - |
| 1777954638 | 4.44° C | 99% | 1003.8 hPa | 0 mm | - | 0 W/m² | - |
| 1777954335 | 4.44° C | 99% | 1003.6 hPa | 0 mm | - | 0 W/m² | - |
| 1777954032 | 5° C | 99% | 1003.5 hPa | 0 mm | - | 0 W/m² | - |
| 1777953729 | 5° C | 99% | 1003.8 hPa | 0 mm | - | 0 W/m² | - |
| 1777953426 | 5° C | 99% | 1003.5 hPa | 0 mm | - | 0 W/m² | - |
| 1777953123 | 5° C | 99% | 1003.8 hPa | 0 mm | - | 0 W/m² | - |
| 1777952819 | 5° C | 99% | 1003.7 hPa | 0 mm | - | 0 W/m² | - |
| 1777952516 | 5° C | 99% | 1003.7 hPa | 0 mm | - | 0 W/m² | - |
| 1777952212 | 5.56° C | 98% | 1003.8 hPa | 0 mm | - | 0 W/m² | - |
| 1777951911 | 6.11° C | 99% | 1003.5 hPa | 0 mm | - | 0 W/m² | - |
| 1777951609 | 5.56° C | 98% | 1003.6 hPa | 0 mm | - | 0 W/m² | - |
| 1777951304 | 5.56° C | 98% | 1003.5 hPa | 0 mm | - | 0 W/m² | - |
| 1777951002 | 5.56° C | 98% | 1003.4 hPa | 0 mm | - | 0 W/m² | - |
| 1777950698 | 6.11° C | 98% | 1003.4 hPa | 0 mm | - | 0 W/m² | - |
| 1777950395 | 5.56° C | 98% | 1003.7 hPa | 0 mm | - | 0 W/m² | - |
* Rain latest hour (hover to see other rain measurements)
** Current wind speed in m/s (hover to see current wind gust speed)